Time,TemperatureF,DewpointF,PressureIn,WindDirection,WindDirectionDegrees,WindSpeedMPH,WindSpeedGustMPH,Humidity,HourlyPrecipIn,Conditions,Clouds,dailyrainin,SoftwareType,DateUTC
2013-08-26 00:14:00,82.0,76.0,30.14,East,89,1.0,3.0,81,0.00,,,0.00,,2013-08-26 04:14:00,
2013-08-26 00:53:00,82.0,76.0,30.12,ESE,115,0.0,3.0,82,0.00,,,0.00,,2013-08-26 04:53:00,
2013-08-26 01:23:00,82.0,76.0,30.10,East,80,1.0,3.0,82,0.00,,,0.00,,2013-08-26 05:23:00,
2013-08-26 01:52:00,81.0,75.0,30.10,ESE,113,0.0,3.0,83,0.00,,,0.00,,2013-08-26 05:52:00,
2013-08-26 02:12:00,81.0,75.0,30.10,SSE,159,0.0,2.0,83,0.00,,,0.00,,2013-08-26 06:12:00,
2013-08-26 02:22:00,81.0,76.0,30.10,SSE,162,0.0,1.0,84,0.00,,,0.00,,2013-08-26 06:22:00,
2013-08-26 02:52:00,78.0,74.0,30.08,East,101,1.0,4.0,89,0.00,,,0.00,,2013-08-26 06:52:00,
2013-08-26 03:22:00,77.0,74.0,30.08,East,101,1.0,3.0,89,0.00,,,0.00,,2013-08-26 07:22:00,
2013-08-26 03:52:00,78.0,74.0,30.07,ENE,61,0.0,1.0,89,0.00,,,0.00,,2013-08-26 07:52:00,
2013-08-26 04:12:00,78.0,75.0,30.06,ENE,61,0.0,0.0,90,0.00,,,0.00,,2013-08-26 08:12:00,
2013-08-26 04:22:00,78.0,75.0,30.06,ENE,61,0.0,0.0,90,0.00,,,0.00,,2013-08-26 08:22:00,
2013-08-26 04:52:00,78.0,74.0,30.05,ENE,61,0.0,0.0,89,0.00,,,0.00,,2013-08-26 08:52:00,
2013-08-26 05:22:00,78.0,74.0,30.05,ENE,61,0.0,0.0,89,0.00,,,0.00,,2013-08-26 09:22:00,
2013-08-26 05:54:00,78.0,75.0,30.06,ENE,60,0.0,0.0,90,0.00,,,0.00,,2013-08-26 09:54:00,
2013-08-26 06:23:00,78.0,75.0,30.06,ENE,61,0.0,0.0,90,0.00,,,0.00,,2013-08-26 10:23:00,
2013-08-26 06:52:00,78.0,75.0,30.07,ENE,61,0.0,0.0,91,0.00,,,0.00,,2013-08-26 10:52:00,
2013-08-26 07:22:00,78.0,75.0,30.08,NE,39,0.0,0.0,91,0.00,,,0.00,,2013-08-26 11:22:00,
2013-08-26 07:52:00,78.0,75.0,30.09,NE,39,0.0,0.0,91,0.00,,,0.00,,2013-08-26 11:52:00,
2013-08-26 08:22:00,79.0,74.0,30.09,ENE,74,0.0,2.0,86,0.00,,,0.00,,2013-08-26 12:22:00,
2013-08-26 08:52:00,80.0,76.0,30.08,ENE,72,0.0,0.0,87,0.00,,,0.00,,2013-08-26 12:52:00,
2013-08-26 09:22:00,81.0,76.0,30.09,NE,42,0.0,1.0,86,0.00,,,0.00,,2013-08-26 13:22:00,
2013-08-26 09:52:00,82.0,77.0,30.10,East,88,1.0,2.0,84,0.00,,,0.00,,2013-08-26 13:52:00,
2013-08-26 10:22:00,82.0,77.0,30.10,East,82,1.0,4.0,86,0.03,,,0.03,,2013-08-26 14:22:00,
2013-08-26 10:52:00,84.0,78.0,30.11,East,87,0.0,5.0,82,0.03,,,0.03,,2013-08-26 14:52:00,
2013-08-26 11:22:00,85.0,74.0,30.11,East,81,1.0,4.0,69,0.00,,,0.03,,2013-08-26 15:22:00,
2013-08-26 11:59:00,88.0,77.0,30.10,NE,39,1.0,3.0,70,0.00,,,0.03,,2013-08-26 15:59:00,
2013-08-26 12:29:00,90.0,78.0,30.09,SSW,207,0.0,3.0,68,0.00,,,0.03,,2013-08-26 16:29:00,
2013-08-26 12:59:00,87.0,76.0,30.09,ESE,115,1.0,6.0,71,0.00,,,0.03,,2013-08-26 16:59:00,
2013-08-26 13:24:00,81.0,75.0,30.08,WSW,258,2.0,6.0,82,0.23,,,0.26,,2013-08-26 17:24:00,
2013-08-26 13:53:00,77.0,73.0,30.10,East,94,0.0,4.0,88,0.24,,,0.27,,2013-08-26 17:53:00,
2013-08-26 14:12:00,78.0,74.0,30.10,ESE,104,1.0,7.0,87,0.07,,,0.27,,2013-08-26 18:12:00,
2013-08-26 14:22:00,78.0,74.0,30.10,ESE,104,1.0,7.0,87,0.07,,,0.27,,2013-08-26 18:22:00,
2013-08-26 14:52:00,78.0,74.0,30.07,ESE,122,0.0,2.0,88,0.00,,,0.27,,2013-08-26 18:52:00,
2013-08-26 15:22:00,77.0,73.0,30.07,WSW,239,1.0,8.0,87,0.00,,,0.27,,2013-08-26 19:22:00,
2013-08-26 15:52:00,77.0,74.0,30.05,SW,236,0.0,2.0,91,0.00,,,0.27,,2013-08-26 19:52:00,
2013-08-26 16:22:00,79.0,75.0,30.05,ENE,72,0.0,0.0,88,0.00,,,0.27,,2013-08-26 20:22:00,
2013-08-26 16:52:00,80.0,73.0,30.04,WSW,243,0.0,1.0,80,0.00,,,0.27,,2013-08-26 20:52:00,
2013-08-26 17:22:00,80.0,74.0,30.04,NE,55,0.0,1.0,82,0.00,,,0.27,,2013-08-26 21:22:00,
2013-08-26 17:55:00,80.0,74.0,30.04,NE,54,0.0,1.0,83,0.00,,,0.27,,2013-08-26 21:55:00,
2013-08-26 18:26:00,80.0,73.0,30.06,East,96,0.0,0.0,80,0.00,,,0.27,,2013-08-26 22:26:00,
2013-08-26 18:53:00,82.0,74.0,30.04,SSE,156,0.0,1.0,78,0.00,,,0.27,,2013-08-26 22:53:00,
2013-08-26 19:22:00,83.0,75.0,30.05,ESE,115,1.0,3.0,78,0.00,,,0.27,,2013-08-26 23:22:00,
2013-08-26 19:52:00,82.0,75.0,30.05,WSW,246,0.0,1.0,79,0.00,,,0.27,,2013-08-26 23:52:00,
2013-08-26 20:21:00,81.0,74.0,30.05,ESE,115,0.0,1.0,80,0.00,,,0.27,,2013-08-27 00:21:00,
2013-08-26 20:52:00,81.0,75.0,30.05,ENE,69,0.0,0.0,82,0.00,,,0.27,,2013-08-27 00:52:00,
2013-08-26 21:22:00,80.0,74.0,30.05,NNE,22,0.0,0.0,83,0.00,,,0.27,,2013-08-27 01:22:00,
2013-08-26 21:52:00,80.0,75.0,30.04,NNE,22,0.0,0.0,85,0.00,,,0.27,,2013-08-27 01:52:00,
2013-08-26 22:22:00,80.0,76.0,30.06,ESE,107,0.0,2.0,87,0.00,,,0.27,,2013-08-27 02:22:00,
2013-08-26 22:52:00,79.0,74.0,30.06,ESE,108,0.0,0.0,86,0.00,,,0.27,,2013-08-27 02:52:00,
2013-08-26 23:23:00,79.0,75.0,30.05,ESE,108,0.0,0.0,88,0.00,,,0.27,,2013-08-27 03:23:00,
2013-08-26 23:58:00,78.0,74.0,30.05,ESE,108,0.0,0.0,88,0.00,,,0.27,,2013-08-27 03:58:00,